[[{"header":{"parameterUnit":"m.s-1","parameterCategory":1,"la1":30.2991,"la2":30.254,"lo1":-89.0895,"lo2":-89.0444,"dy":0.0017,"dx":0.0017,"nx":28,"ny":28,"refTime":"2024-06-27T21:00:00:Z","depth":0,"parameterNumber":2,"parameterNumberName":"U-component_of_WINDS"},"data":[0,0,0,0,0,0,0,0,0,0,0,0,0,0,0,0,0,0,0,0,0,0,0,0,0,0,0,0,0,0,0,0,0,0,0,0,0,0,0,0,0,0,0,0,0,0,0,0,0,0,0,0,0,0,0,0,0,0,3.1672,3.1672,0,3.1711,3.1711,3.1712,3.1632,3.163,3.1627,3.1625,3.1665,3.1668,3.1672,0,0,0,0,0,0,0,0,0,0,0,0,0,3.1526,3.1529,3.1672,3.1672,3.1673,3.1711,3.1711,3.1712,3.1633,3.163,3.1627,3.1624,3.1664,3.1668,3.1672,0,0,0,0,0,0,0,0,0,0,0,0,0,3.158,3.153,3.1672,3.1638,3.1635,3.1711,3.1711,3.1712,3.1634,3.163,3.1626,3.1622,3.1662,3.1667,3.1672,3.1783,0,0,3.1688,3.1691,0,0,0,0,0,0,0,0,3.1577,3.1585,3.1642,3.164,3.1638,3.1663,3.1675,3.1736,3.1635,3.1634,3.1625,3.162,3.1667,3.1672,3.1688,3.1784,3.1786,3.1689,3.1692,3.1694,3.1696,0,0,0,0,0,0,0,3.1573,3.1583,3.1687,3.1643,3.164,3.162,3.1623,3.1686,3.1672,3.1634,3.1628,3.1634,3.1665,3.1683,3.1688,3.1787,3.1689,3.1693,3.1697,3.1699,3.1971,3.1975,0,0,0,0,0,0,3.1574,3.158,3.1686,3.1688,3.1597,3.1626,3.1629,3.1659,3.1671,3.1669,3.1637,3.163,3.1676,3.1682,3.1689,3.1815,3.1694,3.1699,3.1702,3.1967,3.1972,3.1976,0,0,0,0,0,0,3.1571,3.1584,3.1684,3.1633,3.1644,3.1632,3.1666,3.1661,3.1679,3.1674,3.1671,3.1658,3.1673,3.1682,3.1759,3.1816,3.1701,3.1706,3.1962,3.1969,3.1974,3.2071,0,0,0,0,0,0,3.1567,3.1584,3.1626,3.1634,3.1647,3.1755,3.1669,3.1665,3.1688,3.1679,3.1692,3.1691,3.1671,3.1752,3.1764,3.1821,3.171,3.1957,3.1965,3.1972,3.2062,3.2079,3.2094,0,0,0,0,0,3.1562,3.1653,3.1629,3.1642,3.17,3.1758,3.1765,3.174,3.1693,3.1735,3.1731,3.169,3.1808,3.176,3.1774,3.1833,3.1953,3.1963,3.1972,3.2055,3.2076,3.2094,0,0,0,0,0,0,3.1652,3.1653,3.1627,3.1722,3.1741,3.1744,3.1796,3.1764,3.1796,3.1786,3.1754,3.1757,3.184,3.1844,3.1791,3.1938,3.1872,3.1885,3.1931,3.1951,3.1967,3.1963,3.1715,0,0,0,0,0,3.1683,3.173,3.1729,3.1813,3.1824,3.1809,3.1833,3.1812,3.183,3.1837,3.1839,3.1857,3.1897,3.1925,3.1963,3.2063,3.2063,3.2111,3.2126,3.2139,3.215,3.2199,3.2219,3.2007,3.2007,3.2007,0,0,3.1747,3.1753,3.1785,3.1831,3.1843,3.1891,3.1816,3.1871,3.1906,3.1845,3.1917,3.1919,3.1937,3.2026,3.2065,3.2032,3.2208,3.2151,3.2162,3.2165,3.2211,3.2231,3.2249,3.2013,3.2012,3.2011,0,0,3.1887,3.1899,3.1968,3.1981,3.1999,3.1988,3.2005,3.2014,3.2012,3.2084,3.2038,3.208,3.2152,3.2165,3.2181,3.2325,3.2287,3.2338,3.2419,3.2468,3.2485,3.25,3.2547,3.2565,3.2349,3.2349,3.2349,0,3.1965,3.2036,3.2009,3.2066,3.2086,3.2033,3.2101,3.2115,3.2145,3.216,3.2123,3.2209,3.2218,3.2307,3.2341,3.2358,3.2374,3.2335,3.2485,3.2499,3.2512,3.2557,3.2576,3.2355,3.2354,3.2353,3.2353,0,3.2128,3.2178,3.2232,3.2261,3.2287,3.2351,3.2331,3.2361,3.2338,3.233,3.2402,3.2411,3.2447,3.2467,3.2446,3.2552,3.2531,3.2491,3.2423,3.2539,3.258,3.2598,3.2363,3.2361,3.2359,3.2358,0,0,3.2326,3.2337,3.2357,3.2367,3.2382,3.242,3.248,3.2515,3.254,3.2562,3.2609,3.267,3.2632,3.265,3.263,3.2673,3.2781,3.2626,3.2626,3.2652,3.2895,3.2923,3.2943,3.2758,3.2761,3.2763,3.2892,0,3.2462,3.2564,3.254,3.264,3.2684,3.2633,3.2685,3.2699,3.2694,3.273,3.2724,3.2765,3.2714,3.2724,3.2765,3.276,3.2829,3.275,3.2799,3.2801,3.2792,3.2966,3.2996,3.3117,3.2909,3.2911,3.2913,0,3.2634,3.2661,3.2766,3.277,3.2788,3.2835,3.2863,3.2899,3.2913,3.2906,3.2926,3.2896,3.2953,3.2888,3.2964,3.2911,3.293,3.293,3.2934,3.2935,3.2862,3.2968,3.3156,3.3172,3.2939,3.2937,3.2935,0,3.2763,3.2826,3.2895,3.2906,3.2915,3.2948,3.2953,3.2964,3.2985,3.3011,3.3024,3.3056,3.3073,3.3097,3.3076,3.3031,3.3155,3.3089,3.3148,3.3149,3.3174,3.3172,3.3364,3.3193,3.3192,3.3192,3.3191,0,3.2915,3.298,3.2952,3.2995,3.3065,3.3037,3.3107,3.3106,3.3116,3.3156,3.3116,3.3154,3.3125,3.3161,3.3145,3.3209,3.3218,3.3212,3.3206,3.3214,3.3214,3.3223,3.3213,3.3197,3.3196,3.3195,3.3194,0,3.307,3.3054,3.3126,3.3128,3.3129,3.3181,3.3182,3.322,3.3211,3.3263,3.3273,3.3259,3.3299,3.3281,3.3323,3.3312,3.3393,3.3378,3.3388,3.3383,3.3442,3.3435,3.3643,3.3667,3.3484,3.3486,3.3487,0,3.3166,3.3215,3.3221,3.3245,3.3252,3.3292,3.3313,3.3286,3.331,3.3328,3.3364,3.34,3.3427,3.3493,3.3486,3.3517,3.35,3.3571,3.3505,3.351,3.3497,3.3493,3.3496,3.3584,3.3586,3.3588,3.3589,0,3.3338,3.3327,3.3359,3.3388,3.3414,3.3436,3.3454,3.3476,3.345,3.3478,3.3518,3.3539,3.3581,3.3616,3.3643,3.3647,3.3613,3.361,3.3625,3.3631,3.3633,3.3629,3.342,3.3605,3.3603,3.3602,3.3601,3.3601,3.3464,3.3503,3.3512,3.3549,3.3559,3.3577,3.3612,3.3607,3.3639,3.367,3.3653,3.3699,3.3709,3.3742,3.3751,3.3785,3.3757,3.3779,3.3784,3.3789,3.3795,3.3631,3.379,3.379,3.3789,3.3789,3.3789,0,3.363,3.3633,3.3667,3.3692,3.372,3.3687,3.3704,3.3729,3.377,3.3783,3.381,3.3854,3.3887,3.3883,3.3913,3.3941,3.3926,3.395,3.3946,3.3946,3.382,3.3803,3.3961,3.3961,3.3961,3.3961,3.3961,3.3961,3.3719,3.3782,3.3773,3.384,3.3842,3.3886,3.3898,3.3913,3.3923,3.3974,3.4001,3.3998,3.4003,3.4033,3.4062,3.406,3.4071,3.41,3.4092,3.3973,3.3956,3.3939,3.3923,3.4104,3.4104,3.4214,3.4215,3.4216]},{"header":{"parameterUnit":"m.s-1","parameterCategory":1,"la1":30.2991,"la2":30.254,"lo1":-89.0895,"lo2":-89.0444,"dy":0.0017,"dx":0.0017,"nx":28,"ny":28,"refTime":"2024-06-27T21:00:00:Z","depth":0,"parameterNumber":3,"parameterNumberName":"V-component_of_WINDS"},"data":[0,0,0,0,0,0,0,0,0,0,0,0,0,0,0,0,0,0,0,0,0,0,0,0,0,0,0,0,0,0,0,0,0,0,0,0,0,0,0,0,0,0,0,0,0,0,0,0,0,0,0,0,0,0,0,0,0,0,6.4762,6.4762,0,6.4816,6.4816,6.4817,6.4755,6.4752,6.475,6.4748,6.4799,6.4803,6.4806,0,0,0,0,0,0,0,0,0,0,0,0,0,6.4598,6.4601,6.4762,6.4762,6.4763,6.4816,6.4816,6.4817,6.4755,6.4752,6.4749,6.4747,6.4798,6.4802,6.4806,0,0,0,0,0,0,0,0,0,0,0,0,0,6.4662,6.4603,6.4761,6.4738,6.4737,6.4816,6.4816,6.4817,6.4756,6.4752,6.4749,6.4745,6.4797,6.4802,6.4807,6.491,0,0,6.4823,6.4826,0,0,0,0,0,0,0,0,6.4659,6.4668,6.4741,6.474,6.4739,6.4775,6.4778,6.4848,6.4756,6.4748,6.4748,6.4744,6.4794,6.4799,6.4817,6.4912,6.4915,6.4824,6.4827,6.4829,6.4831,0,0,0,0,0,0,0,6.4654,6.4666,6.4783,6.4742,6.4741,6.4723,6.4729,6.4791,6.479,6.4749,6.4744,6.4752,6.4792,6.4812,6.4817,6.4915,6.4824,6.4828,6.4832,6.4834,6.5094,6.5097,0,0,0,0,0,0,6.4653,6.4662,6.4781,6.4784,6.4689,6.4729,6.4735,6.4767,6.4789,6.4789,6.4755,6.4749,6.4804,6.4811,6.4819,6.4938,6.4829,6.4834,6.4837,6.509,6.5094,6.5098,0,0,0,0,0,0,6.465,6.4665,6.4779,6.4722,6.4736,6.4736,6.4772,6.477,6.4789,6.4794,6.4793,6.4775,6.4802,6.4812,6.4887,6.4939,6.4837,6.4841,6.5086,6.5091,6.5096,6.5179,0,0,0,0,0,0,6.4646,6.4664,6.4704,6.4724,6.4739,6.4848,6.4775,6.4773,6.4799,6.4791,6.4813,6.4813,6.48,6.488,6.4892,6.4944,6.4846,6.5081,6.5088,6.5095,6.5171,6.5186,6.5199,0,0,0,0,0,6.464,6.4725,6.4707,6.4721,6.479,6.4851,6.486,6.4845,6.4803,6.4843,6.4845,6.4812,6.4932,6.4888,6.4902,6.4956,6.5077,6.5086,6.5094,6.5165,6.5183,6.5199,0,0,0,0,0,0,6.4711,6.4728,6.4707,6.4802,6.4826,6.4841,6.489,6.4865,6.49,6.4892,6.487,6.4875,6.4955,6.4963,6.4914,6.5055,6.4997,6.5009,6.5046,6.5064,6.5078,6.5073,6.485,0,0,0,0,0,6.4738,6.4789,6.4799,6.4881,6.4895,6.4891,6.4917,6.4903,6.4926,6.4936,6.4944,6.4967,6.5009,6.5037,6.5077,6.5173,6.5174,6.5217,6.5231,6.5242,6.5252,6.5299,6.5317,6.5126,6.5126,6.5126,0,0,6.4794,6.4809,6.4842,6.4896,6.4913,6.4963,6.49,6.4956,6.4992,6.4944,6.5015,6.5022,6.5046,6.5131,6.5169,6.514,6.5305,6.5253,6.5262,6.5265,6.531,6.5328,6.5344,6.5132,6.5131,6.513,0,0,6.492,6.4939,6.5007,6.5025,6.5052,6.5048,6.5065,6.5084,6.5086,6.5158,6.5122,6.5164,6.5238,6.5255,6.5274,6.5405,6.5374,6.5418,6.549,6.5537,6.5552,6.5565,6.5609,6.5625,6.5428,6.5428,6.5428,0,6.4986,6.5062,6.5045,6.5104,6.5127,6.5087,6.5154,6.5172,6.521,6.5226,6.5194,6.5284,6.5298,6.5385,6.5416,6.5434,6.545,6.5415,6.5552,6.5565,6.5577,6.5618,6.5635,6.5433,6.5433,6.5432,6.5432,0,6.5139,6.5192,6.5244,6.5281,6.5311,6.5374,6.5365,6.5396,6.5379,6.5378,6.545,6.5464,6.5504,6.5525,6.5509,6.5609,6.559,6.5555,6.5497,6.56,6.5638,6.5654,6.544,6.5438,6.5437,6.5436,0,0,6.5312,6.5339,6.5358,6.5373,6.5398,6.5438,6.5497,6.5537,6.5563,6.559,6.5638,6.5701,6.5668,6.5689,6.5675,6.5716,6.5815,6.5676,6.5676,6.5699,6.5922,6.5946,6.5965,6.5796,6.5799,6.5801,6.5919,0,6.5436,6.5541,6.5527,6.5626,6.5672,6.5634,6.5685,6.5705,6.5706,6.5743,6.5743,6.5787,6.5743,6.5754,6.5794,6.5795,6.5859,6.5786,6.5837,6.5839,6.583,6.5985,6.6011,6.6122,6.5934,6.5937,6.5939,0,6.5595,6.5628,6.5732,6.5747,6.5766,6.5813,6.5847,6.5885,6.5905,6.5902,6.5925,6.5903,6.596,6.5902,6.5978,6.5929,6.5949,6.5952,6.5956,6.5958,6.5893,6.5989,6.6157,6.6173,6.5963,6.5961,6.5959,0,6.5707,6.5777,6.5847,6.5862,6.5883,6.5916,6.5926,6.5943,6.5967,6.5996,6.6011,6.6047,6.6066,6.6093,6.6079,6.6039,6.6157,6.6099,6.6154,6.6154,6.6179,6.6177,6.635,6.6196,6.6196,6.6196,6.6195,0,6.5846,6.591,6.5897,6.594,6.601,6.5993,6.6062,6.6067,6.6082,6.6124,6.6093,6.6132,6.6114,6.6151,6.6141,6.6204,6.6213,6.6211,6.6207,6.6212,6.6212,6.6223,6.6214,6.62,6.6199,6.6198,6.6197,0,6.5981,6.5976,6.605,6.6063,6.6068,6.6118,6.6128,6.6167,6.6165,6.6218,6.6229,6.6225,6.6267,6.6257,6.6304,6.6296,6.6375,6.6363,6.6368,6.6364,6.6418,6.6412,6.6602,6.6625,6.6459,6.6461,6.6462,0,6.6069,6.6118,6.6136,6.6162,6.6174,6.6217,6.624,6.6225,6.625,6.6276,6.6312,6.6351,6.6382,6.645,6.645,6.6485,6.6471,6.6536,6.6476,6.6479,6.6469,6.6465,6.6468,6.6547,6.6549,6.655,6.6551,0,6.6224,6.6218,6.6255,6.629,6.632,6.6347,6.637,6.6393,6.6378,6.6409,6.6452,6.6475,6.6522,6.656,6.6592,6.66,6.6572,6.657,6.6584,6.6589,6.6589,6.6586,6.6397,6.6565,6.6564,6.6563,6.6562,6.6562,6.6336,6.6376,6.6395,6.6435,6.6451,6.6474,6.651,6.6512,6.6548,6.6585,6.6573,6.6621,6.6638,6.6677,6.6689,6.6725,6.6701,6.6722,6.6726,6.6731,6.6736,6.6585,6.6731,6.6731,6.673,6.673,6.673,0,6.6487,6.6496,6.6534,6.6568,6.6599,6.6572,6.6596,6.6624,6.6667,6.6685,6.6716,6.6764,6.68,6.6803,6.6837,6.6865,6.6853,6.6874,6.6871,6.6872,6.6758,6.6741,6.6883,6.6883,6.6883,6.6883,6.6883,6.6883,6.6569,6.6634,6.663,6.6702,6.671,6.6758,6.6773,6.6793,6.6807,6.6862,6.6892,6.6894,6.6906,6.694,6.6971,6.6971,6.6984,6.7009,6.7004,6.6896,6.6881,6.6866,6.685,6.7013,6.7013,6.7115,6.7116,6.7116]}]]